| time (UTC) | temp F | wind direction | speed MPH | gust MPH | rain 1hr in | rain 24hr in | rain mn in | humidity % | barometer mb |
| 20260505031503 | 60 | 216 | 1.0 | 8.0 | 0.00 | 0.00 | 0.00 | 56 | 1005.9 |
| 20260505031003 | 60 | 215 | 1.0 | 8.0 | 0.00 | 0.00 | 0.00 | 56 | 1005.9 |
| 20260505030503 | 60 | 184 | 3.0 | 8.0 | 0.00 | 0.00 | 0.00 | 55 | 1006.0 |
| 20260505030003 | 60 | 209 | 2.0 | 11.0 | 0.00 | 0.00 | 0.00 | 55 | 1006.0 |
| 20260505025505 | 60 | 182 | 2.0 | 11.0 | 0.00 | 0.00 | 0.00 | 55 | 1006.0 |
| 20260505025003 | 60 | 208 | 2.0 | 9.0 | 0.00 | 0.00 | 0.00 | 55 | 1005.9 |
| 20260505024503 | 60 | 208 | 1.0 | 7.0 | 0.00 | 0.00 | 0.00 | 54 | 1005.9 |
| 20260505024002 | 60 | 188 | 0.0 | 7.0 | 0.00 | 0.00 | 0.00 | 54 | 1005.9 |
| 20260505023502 | 60 | 209 | 2.0 | 7.0 | 0.00 | 0.00 | 0.00 | 54 | 1005.9 |
| 20260505023002 | 60 | 216 | 1.0 | 11.0 | 0.00 | 0.00 | 0.00 | 54 | 1005.9 |
| 20260505022502 | 61 | 227 | 2.0 | 11.0 | 0.00 | 0.00 | 0.00 | 53 | 1005.9 |
| 20260505022002 | 61 | 231 | 2.0 | 10.0 | 0.00 | 0.00 | 0.00 | 53 | 1005.9 |
| 20260505021501 | 61 | 200 | 2.0 | 10.0 | 0.00 | 0.00 | 0.00 | 52 | 1005.9 |
| 20260505021001 | 61 | 204 | 2.0 | 8.0 | 0.00 | 0.00 | 0.00 | 52 | 1005.9 |
| 20260505020501 | 62 | 201 | 0.0 | 11.0 | 0.00 | 0.00 | 0.00 | 52 | 1005.9 |
| 20260505020002 | 62 | 198 | 2.0 | 11.0 | 0.00 | 0.00 | 0.00 | 51 | 1005.9 |
| 20260505015501 | 62 | 209 | 1.0 | 10.0 | 0.00 | 0.00 | 0.00 | 51 | 1005.9 |
| 20260505015001 | 62 | 196 | 2.0 | 12.0 | 0.00 | 0.00 | 0.00 | 51 | 1005.6 |
| 20260505014503 | 62 | 190 | 1.0 | 10.0 | 0.00 | 0.00 | 0.00 | 50 | 1005.6 |
| 20260505014104 | 62 | 185 | 2.0 | 9.0 | 0.00 | 0.00 | 0.00 | 50 | 1005.6 |
| 20260505013600 | 63 | 196 | 0.0 | 12.0 | 0.00 | 0.00 | 0.00 | 50 | 1005.4 |
| 20260505013100 | 63 | 193 | 4.0 | 12.0 | 0.00 | 0.00 | 0.00 | 49 | 1005.4 |
| 20260505012600 | 63 | 194 | 1.0 | 11.0 | 0.00 | 0.00 | 0.00 | 49 | 1005.4 |
| 20260505012100 | 64 | 213 | 2.0 | 10.0 | 0.00 | 0.00 | 0.00 | 48 | 1005.0 |
| 20260505011600 | 64 | 205 | 3.0 | 13.0 | 0.00 | 0.00 | 0.00 | 48 | 1005.0 |
| 20260505011103 | 64 | 197 | 2.0 | 17.0 | 0.00 | 0.00 | 0.00 | 48 | 1005.0 |
| 20260505010559 | 64 | 188 | 5.0 | 17.0 | 0.00 | 0.00 | 0.00 | 48 | 1004.7 |
| 20260505010104 | 64 | 191 | 4.0 | 17.0 | 0.00 | 0.00 | 0.00 | 48 | 1004.7 |
| 20260505005604 | 64 | 194 | 1.0 | 12.0 | 0.00 | 0.00 | 0.00 | 47 | 1004.7 |
| 20260505005059 | 65 | 174 | 2.0 | 13.0 | 0.00 | 0.00 | 0.00 | 46 | 1004.3 |
| 20260505004559 | 65 | 237 | 3.0 | 16.0 | 0.00 | 0.00 | 0.00 | 46 | 1004.3 |
| 20260505004100 | 65 | 228 | 3.0 | 16.0 | 0.00 | 0.00 | 0.00 | 45 | 1004.3 |
| 20260505003557 | 65 | 192 | 3.0 | 12.0 | 0.00 | 0.00 | 0.00 | 45 | 1003.9 |
| 20260505003104 | 65 | 197 | 3.0 | 17.0 | 0.00 | 0.00 | 0.00 | 44 | 1003.9 |
| 20260505002557 | 66 | 217 | 4.0 | 21.0 | 0.00 | 0.00 | 0.00 | 44 | 1003.9 |
| 20260505002057 | 66 | 226 | 5.0 | 21.0 | 0.00 | 0.00 | 0.00 | 44 | 1003.4 |
| 20260505001558 | 66 | 216 | 4.0 | 17.0 | 0.00 | 0.00 | 0.00 | 44 | 1003.4 |
| 20260505001057 | 66 | 213 | 6.0 | 16.0 | 0.00 | 0.00 | 0.00 | 43 | 1003.4 |
| 20260505000557 | 66 | 205 | 6.0 | 15.0 | 0.00 | 0.00 | 0.00 | 43 | 1003.0 |
| 20260504235557 | 67 | 232 | 0.0 | 0.0 | 0.00 | 0.00 | 0.00 | 40 | 1003.0 |
| 20260504235057 | 67 | 212 | 0.0 | 4.0 | 0.00 | 0.00 | 0.00 | 39 | 1002.8 |
| 20260504234556 | 68 | 222 | 0.0 | 10.0 | 0.00 | 0.00 | 0.00 | 39 | 1002.8 |
| 20260504234055 | 68 | 212 | 0.0 | 7.0 | 0.00 | 0.00 | 0.00 | 39 | 1002.8 |
| 20260504233555 | 69 | 227 | 0.0 | 5.0 | 0.00 | 0.00 | 0.00 | 38 | 1002.7 |
| 20260504233058 | 69 | 228 | 0.0 | 8.0 | 0.00 | 0.00 | 0.00 | 37 | 1002.7 |
| 20260504232559 | 69 | 228 | 1.0 | 10.0 | 0.00 | 0.00 | 0.00 | 36 | 1002.7 |
| 20260504232055 | 70 | 211 | 1.0 | 12.0 | 0.00 | 0.00 | 0.00 | 36 | 1002.3 |
| 20260504231555 | 70 | 240 | 2.0 | 12.0 | 0.00 | 0.00 | 0.00 | 36 | 1002.3 |
| 20260504231054 | 70 | 242 | 3.0 | 11.0 | 0.00 | 0.00 | 0.00 | 35 | 1002.3 |
| 20260504230557 | 70 | 227 | 2.0 | 13.0 | 0.00 | 0.00 | 0.00 | 35 | 1002.2 |
| 20260504230055 | 71 | 196 | 5.0 | 13.0 | 0.00 | 0.00 | 0.00 | 35 | 1002.2 |
| 20260504225554 | 71 | 212 | 2.0 | 13.0 | 0.00 | 0.00 | 0.00 | 35 | 1002.2 |
| 20260504225054 | 71 | 232 | 3.0 | 13.0 | 0.00 | 0.00 | 0.00 | 34 | 1002.2 |
| 20260504224553 | 71 | 234 | 2.0 | 12.0 | 0.00 | 0.00 | 0.00 | 36 | 1002.2 |
| 20260504224056 | 71 | 236 | 0.0 | 11.0 | 0.00 | 0.00 | 0.00 | 35 | 1002.2 |
| 20260504223556 | 71 | 222 | 4.0 | 13.0 | 0.00 | 0.00 | 0.00 | 34 | 1002.2 |
| 20260504223107 | 71 | 227 | 2.0 | 13.0 | 0.00 | 0.00 | 0.00 | 34 | 1002.2 |
| 20260504222553 | 72 | 224 | 4.0 | 13.0 | 0.00 | 0.00 | 0.00 | 33 | 1002.2 |
| 20260504222052 | 72 | 246 | 1.0 | 13.0 | 0.00 | 0.00 | 0.00 | 32 | 1002.0 |
| 20260504221553 | 72 | 232 | 2.0 | 8.0 | 0.00 | 0.00 | 0.00 | 33 | 1002.0 |
| 20260504221052 | 72 | 227 | 0.0 | 8.0 | 0.00 | 0.00 | 0.00 | 34 | 1002.0 |
| 20260504220552 | 72 | 221 | 2.0 | 13.0 | 0.00 | 0.00 | 0.00 | 32 | 1002.0 |
| 20260504220052 | 73 | 217 | 5.0 | 16.0 | 0.00 | 0.00 | 0.00 | 32 | 1002.0 |
| 20260504215555 | 73 | 217 | 6.0 | 16.0 | 0.00 | 0.00 | 0.00 | 32 | 1002.0 |
| 20260504215051 | 73 | 223 | 0.0 | 13.0 | 0.00 | 0.00 | 0.00 | 33 | 1002.0 |
| 20260504214552 | 73 | 292 | 3.0 | 13.0 | 0.00 | 0.00 | 0.00 | 32 | 1002.0 |
| 20260504214152 | 73 | 200 | 7.0 | 14.0 | 0.00 | 0.00 | 0.00 | 31 | 1002.0 |
| 20260504213550 | 73 | 270 | 1.0 | 8.0 | 0.00 | 0.00 | 0.00 | 31 | 1002.0 |
| 20260504213050 | 74 | 221 | 0.0 | 11.0 | 0.00 | 0.00 | 0.00 | 32 | 1002.0 |
| 20260504212552 | 74 | 219 | 1.0 | 12.0 | 0.00 | 0.00 | 0.00 | 31 | 1002.0 |
| 20260504212050 | 74 | 269 | 3.0 | 15.0 | 0.00 | 0.00 | 0.00 | 30 | 1002.1 |
| 20260504211633 | 73 | 275 | 4.0 | 15.0 | 0.00 | 0.00 | 0.00 | 32 | 1002.1 |
| 20260504211049 | 73 | 258 | 1.0 | 11.0 | 0.00 | 0.00 | 0.00 | 32 | 1002.1 |
| 20260504210549 | 72 | 225 | 4.0 | 16.0 | 0.00 | 0.00 | 0.00 | 31 | 1002.2 |
| 20260504210052 | 72 | 248 | 3.0 | 16.0 | 0.00 | 0.00 | 0.00 | 32 | 1002.2 |
| 20260504205549 | 73 | 223 | 0.0 | 16.0 | 0.00 | 0.00 | 0.00 | 32 | 1002.2 |
| 20260504205048 | 73 | 252 | 5.0 | 16.0 | 0.00 | 0.00 | 0.00 | 31 | 1002.2 |
| 20260504204547 | 74 | 209 | 4.0 | 16.0 | 0.00 | 0.00 | 0.00 | 29 | 1002.2 |
| 20260504204047 | 74 | 213 | 3.0 | 16.0 | 0.00 | 0.00 | 0.00 | 30 | 1002.2 |
| 20260504203547 | 74 | 230 | 4.0 | 17.0 | 0.00 | 0.00 | 0.00 | 29 | 1002.1 |
| 20260504203047 | 74 | 227 | 2.0 | 20.0 | 0.00 | 0.00 | 0.00 | 30 | 1002.1 |
| 20260504202547 | 74 | 267 | 2.0 | 22.0 | 0.00 | 0.00 | 0.00 | 30 | 1002.1 |
| 20260504202046 | 74 | 180 | 6.0 | 18.0 | 0.00 | 0.00 | 0.00 | 29 | 1002.2 |
| 20260504201546 | 74 | 197 | 3.0 | 17.0 | 0.00 | 0.00 | 0.00 | 29 | 1002.2 |
| 20260504201045 | 74 | 243 | 2.0 | 20.0 | 0.00 | 0.00 | 0.00 | 29 | 1002.2 |
| 20260504200545 | 74 | 294 | 5.0 | 19.0 | 0.00 | 0.00 | 0.00 | 30 | 1002.3 |
| 20260504200045 | 74 | 223 | 7.0 | 16.0 | 0.00 | 0.00 | 0.00 | 29 | 1002.3 |
| 20260504195544 | 74 | 263 | 2.0 | 16.0 | 0.00 | 0.00 | 0.00 | 28 | 1002.3 |
| 20260504195044 | 74 | 270 | 2.0 | 19.0 | 0.00 | 0.00 | 0.00 | 30 | 1002.2 |
| 20260504194550 | 74 | 224 | 6.0 | 16.0 | 0.00 | 0.00 | 0.00 | 29 | 1002.2 |
| 20260504194043 | 74 | 243 | 2.0 | 12.0 | 0.00 | 0.00 | 0.00 | 29 | 1002.2 |
| 20260504193542 | 74 | 267 | 2.0 | 12.0 | 0.00 | 0.00 | 0.00 | 29 | 1002.3 |
| 20260504193042 | 73 | 218 | 1.0 | 18.0 | 0.00 | 0.00 | 0.00 | 33 | 1002.3 |
| 20260504192542 | 74 | 250 | 6.0 | 18.0 | 0.00 | 0.00 | 0.00 | 29 | 1002.3 |
| 20260504192042 | 74 | 269 | 4.0 | 15.0 | 0.00 | 0.00 | 0.00 | 29 | 1002.3 |
| 20260504191558 | 74 | 225 | 1.0 | 20.0 | 0.00 | 0.00 | 0.00 | 31 | 1002.3 |
| 20260504191042 | 74 | 275 | 5.0 | 20.0 | 0.00 | 0.00 | 0.00 | 29 | 1002.3 |
| 20260504190543 | 74 | 249 | 2.0 | 10.0 | 0.00 | 0.00 | 0.00 | 29 | 1002.4 |
| 20260504190045 | 74 | 236 | 1.0 | 9.0 | 0.00 | 0.00 | 0.00 | 32 | 1002.4 |
| 20260504185538 | 73 | 232 | 1.0 | 16.0 | 0.00 | 0.00 | 0.00 | 31 | 1002.4 |
| 20260504185038 | 73 | 238 | 6.0 | 20.0 | 0.00 | 0.00 | 0.00 | 30 | 1002.8 |
| 20260504184547 | 73 | 229 | 6.0 | 20.0 | 0.00 | 0.00 | 0.00 | 29 | 1002.8 |
| 20260504184036 | 73 | 270 | 3.0 | 19.0 | 0.00 | 0.00 | 0.00 | 30 | 1002.8 |
| 20260504183536 | 73 | 256 | 10.0 | 19.0 | 0.00 | 0.00 | 0.00 | 31 | 1002.7 |
| 20260504183035 | 73 | 224 | 4.0 | 18.0 | 0.00 | 0.00 | 0.00 | 32 | 1002.7 |
| 20260504182534 | 73 | 227 | 4.0 | 16.0 | 0.00 | 0.00 | 0.00 | 31 | 1002.7 |
| 20260504182034 | 72 | 230 | 4.0 | 16.0 | 0.00 | 0.00 | 0.00 | 31 | 1002.8 |
| 20260504181536 | 72 | 262 | 4.0 | 15.0 | 0.00 | 0.00 | 0.00 | 31 | 1002.8 |
| 20260504181033 | 72 | 207 | 6.0 | 19.0 | 0.00 | 0.00 | 0.00 | 31 | 1002.8 |
| 20260504180532 | 72 | 238 | 9.0 | 19.0 | 0.00 | 0.00 | 0.00 | 32 | 1002.8 |
| 20260504180033 | 71 | 286 | 2.0 | 19.0 | 0.00 | 0.00 | 0.00 | 33 | 1002.8 |
| 20260504175531 | 71 | 219 | 5.0 | 20.0 | 0.00 | 0.00 | 0.00 | 32 | 1002.8 |
| 20260504175031 | 71 | 237 | 7.0 | 22.0 | 0.00 | 0.00 | 0.00 | 31 | 1003.0 |
| 20260504174532 | 72 | 240 | 6.0 | 19.0 | 0.00 | 0.00 | 0.00 | 34 | 1003.0 |
| 20260504174029 | 71 | 250 | 9.0 | 19.0 | 0.00 | 0.00 | 0.00 | 34 | 1003.0 |
| 20260504173528 | 71 | 213 | 8.0 | 23.0 | 0.00 | 0.00 | 0.00 | 34 | 1003.2 |
| 20260504173028 | 71 | 196 | 6.0 | 19.0 | 0.00 | 0.00 | 0.00 | 33 | 1003.2 |
| 20260504172528 | 71 | 219 | 5.0 | 23.0 | 0.00 | 0.00 | 0.00 | 33 | 1003.2 |
| 20260504172028 | 71 | 243 | 7.0 | 23.0 | 0.00 | 0.00 | 0.00 | 34 | 1003.1 |
| 20260504171529 | 70 | 239 | 3.0 | 30.0 | 0.00 | 0.00 | 0.00 | 33 | 1003.1 |
| 20260504171028 | 71 | 243 | 11.0 | 30.0 | 0.00 | 0.00 | 0.00 | 32 | 1003.1 |
| 20260504170528 | 71 | 234 | 6.0 | 24.0 | 0.00 | 0.00 | 0.00 | 35 | 1003.2 |
| 20260504151013 | 66 | 238 | 2.0 | 12.0 | 0.00 | 0.00 | 0.00 | 38 | 1004.5 |
| 20260504150512 | 66 | 250 | 2.0 | 21.0 | 0.00 | 0.00 | 0.00 | 41 | 1004.7 |
| 20260504141006 | 64 | 249 | 5.0 | 18.0 | 0.00 | 0.00 | 0.00 | 42 | 1005.0 |
| 20260504140504 | 64 | 184 | 5.0 | 18.0 | 0.00 | 0.00 | 0.00 | 43 | 1004.9 |
| 20260504130550 | 59 | 271 | 0.0 | 13.0 | 0.00 | 0.00 | 0.00 | 49 | 1005.8 |
| 20260504110523 | 44 | 216 | 0.0 | 0.0 | 0.00 | 0.00 | 0.00 | 78 | 1006.6 |
| 20260504100519 | 41 | 218 | 0.0 | 0.0 | 0.00 | 0.00 | 0.00 | 76 | 1006.4 |
| 20260504081514 | 46 | 219 | 0.0 | 2.0 | 0.00 | 0.00 | 0.00 | 66 | 1006.4 |
| 20260504081015 | 46 | 219 | 0.0 | 2.0 | 0.00 | 0.00 | 0.00 | 65 | 1006.4 |
| 20260504080514 | 46 | 219 | 0.0 | 3.0 | 0.00 | 0.00 | 0.00 | 64 | 1006.3 |
| 20260504070106 | 40 | 241 | 0.0 | 2.0 | 0.00 | 0.00 | 0.00 | 78 | 1006.2 |
| 20260504050541 | 35 | 275 | 0.0 | 0.0 | 0.00 | 0.00 | 0.00 | 80 | 1006.2 |
| 20260504045539 | 35 | 275 | 0.0 | 0.0 | 0.00 | 0.00 | 0.00 | 80 | 1006.2 |
| 20260504045038 | 35 | 275 | 0.0 | 0.0 | 0.00 | 0.00 | 0.00 | 80 | 1006.2 |
| 20260504044538 | 35 | 275 | 0.0 | 0.0 | 0.00 | 0.00 | 0.00 | 80 | 1006.2 |
| 20260504044038 | 35 | 275 | 0.0 | 0.0 | 0.00 | 0.00 | 0.00 | 80 | 1006.2 |
| 20260504043539 | 35 | 275 | 0.0 | 0.0 | 0.00 | 0.00 | 0.00 | 80 | 1006.1 |
| 20260504043041 | 35 | 275 | 0.0 | 0.0 | 0.00 | 0.00 | 0.00 | 79 | 1006.1 |
| 20260504042538 | 35 | 275 | 0.0 | 0.0 | 0.00 | 0.00 | 0.00 | 79 | 1006.1 |
| 20260504042039 | 35 | 275 | 0.0 | 0.0 | 0.00 | 0.00 | 0.00 | 78 | 1006.1 |
| 20260504041536 | 35 | 275 | 0.0 | 0.0 | 0.00 | 0.00 | 0.00 | 78 | 1006.1 |
| 20260504041035 | 36 | 275 | 0.0 | 0.0 | 0.00 | 0.00 | 0.00 | 78 | 1006.1 |
| 20260504040534 | 36 | 275 | 0.0 | 0.0 | 0.00 | 0.00 | 0.00 | 78 | 1006.0 |
| 20260504040037 | 36 | 275 | 0.0 | 0.0 | 0.00 | 0.00 | 0.00 | 78 | 1006.0 |
| 20260504035534 | 36 | 275 | 0.0 | 0.0 | 0.00 | 0.00 | 0.00 | 77 | 1006.0 |
| 20260504035033 | 36 | 275 | 0.0 | 0.0 | 0.00 | 0.00 | 0.00 | 77 | 1005.8 |
| 20260504034533 | 36 | 275 | 0.0 | 0.0 | 0.00 | 0.00 | 0.00 | 77 | 1005.8 |
| 20260504034034 | 36 | 275 | 0.0 | 0.0 | 0.00 | 0.00 | 0.00 | 77 | 1005.8 |
| 20260504033530 | 36 | 275 | 0.0 | 0.0 | 0.00 | 0.00 | 0.00 | 77 | 1005.9 |
| 20260504033031 | 37 | 275 | 0.0 | 0.0 | 0.00 | 0.00 | 0.00 | 77 | 1005.9 |
| 20260504032530 | 37 | 275 | 0.0 | 0.0 | 0.00 | 0.00 | 0.00 | 76 | 1005.9 |
| 20260504032029 | 37 | 275 | 0.0 | 0.0 | 0.00 | 0.00 | 0.00 | 76 | 1005.9 |